{"data":{"norad_id":65541,"epoch":"2026-09-20T22:18:25.536672Z","epoch_age_seconds":74818,"freshness":"FRESH","line1":"1 65541U 25200X   26263.92946223  .00018066  00000+0  56044-3 0  9998","line2":"2 65541  97.2853 330.2586 0000871  83.7204 276.4138 15.33453702 58708","mean_motion":15.33453702,"eccentricity":8.71e-5,"inclination_deg":97.2853,"raan_deg":330.2586,"arg_perigee_deg":83.7204,"mean_anomaly_deg":276.4138,"bstar":0.00056044,"rev_number":5870,"period_min":93.905671760542,"perigee_km":464.92120128285,"apogee_km":466.11336585905,"semimajor_km":6843.6542835709,"source":"CELESTRAK","updated_at":"2026-09-21T09:00:35.652100Z"}}